[[{"header":{"parameterUnit":"m.s-1","parameterCategory":1,"la1":30.2991,"la2":30.254,"lo1":-89.0895,"lo2":-89.0444,"dy":0.0017,"dx":0.0017,"nx":28,"ny":28,"refTime":"2024-06-10T21:00:00:Z","depth":0,"parameterNumber":2,"parameterNumberName":"U-component_of_WINDS"},"data":[0,0,0,0,0,0,0,0,0,0,0,0,0,0,0,0,0,0,0,0,0,0,0,0,0,0,0,0,0,0,0,0,0,0,0,0,0,0,0,0,0,0,0,0,0,0,0,0,0,0,0,0,0,0,0,0,0,0,-2.4442,-2.4442,0,-2.4401,-2.4401,-2.4401,-2.4301,-2.4299,-2.4297,-2.4295,-2.4257,-2.4258,-2.4259,0,0,0,0,0,0,0,0,0,0,0,0,0,-2.4439,-2.444,-2.4442,-2.4442,-2.4441,-2.4402,-2.4401,-2.44,-2.4302,-2.4299,-2.4297,-2.4294,-2.4257,-2.4258,-2.4259,0,0,0,0,0,0,0,0,0,0,0,0,0,-2.4424,-2.444,-2.4442,-2.4387,-2.4382,-2.4402,-2.4401,-2.44,-2.4302,-2.4299,-2.4296,-2.4293,-2.4256,-2.4258,-2.4259,-2.4331,0,0,-2.4263,-2.4264,0,0,0,0,0,0,0,0,-2.4425,-2.4424,-2.4396,-2.4391,-2.4385,-2.4353,-2.4386,-2.4377,-2.4303,-2.4333,-2.4295,-2.4291,-2.4292,-2.429,-2.4289,-2.4329,-2.4327,-2.4264,-2.4264,-2.4265,-2.4265,0,0,0,0,0,0,0,-2.4426,-2.4425,-2.4426,-2.4396,-2.4389,-2.4366,-2.436,-2.4384,-2.433,-2.433,-2.4322,-2.4319,-2.4288,-2.4288,-2.4288,-2.4327,-2.4264,-2.4265,-2.4266,-2.4266,-2.4425,-2.4428,0,0,0,0,0,0,-2.4435,-2.4427,-2.4427,-2.4425,-2.4398,-2.4369,-2.4362,-2.4367,-2.433,-2.4321,-2.4321,-2.4314,-2.4288,-2.4286,-2.4286,-2.4369,-2.4265,-2.4266,-2.4267,-2.4421,-2.4425,-2.4429,0,0,0,0,0,0,-2.4435,-2.4436,-2.4429,-2.4424,-2.4421,-2.4372,-2.4378,-2.4368,-2.4367,-2.4323,-2.4314,-2.4331,-2.4285,-2.4284,-2.432,-2.4366,-2.4267,-2.4268,-2.4417,-2.4422,-2.4427,-2.4534,0,0,0,0,0,0,-2.4435,-2.4436,-2.4462,-2.4425,-2.4422,-2.4463,-2.438,-2.4369,-2.437,-2.436,-2.433,-2.4322,-2.4282,-2.4319,-2.4322,-2.4366,-2.4269,-2.4413,-2.442,-2.4426,-2.4526,-2.4542,-2.4555,0,0,0,0,0,-2.4435,-2.4494,-2.4463,-2.4464,-2.4453,-2.4466,-2.4464,-2.4416,-2.4374,-2.44,-2.4372,-2.4323,-2.436,-2.4323,-2.4326,-2.4371,-2.441,-2.4418,-2.4425,-2.4519,-2.4539,-2.4555,0,0,0,0,0,0,-2.4538,-2.4488,-2.4454,-2.4502,-2.4489,-2.4449,-2.448,-2.4438,-2.4438,-2.4429,-2.4371,-2.4365,-2.441,-2.4394,-2.4354,-2.4439,-2.4377,-2.4386,-2.4448,-2.4466,-2.4481,-2.4484,-2.427,0,0,0,0,0,-2.4566,-2.4579,-2.4535,-2.4582,-2.4577,-2.453,-2.4534,-2.4498,-2.4483,-2.4477,-2.4452,-2.444,-2.4449,-2.4457,-2.4462,-2.4523,-2.4516,-2.4556,-2.457,-2.4582,-2.4591,-2.4624,-2.4641,-2.4454,-2.4454,-2.4454,0,0,-2.4624,-2.4598,-2.461,-2.4602,-2.4587,-2.4605,-2.4526,-2.4547,-2.456,-2.4481,-2.4514,-2.4495,-2.4478,-2.4527,-2.4548,-2.4516,-2.4641,-2.4592,-2.4602,-2.4604,-2.4633,-2.4651,-2.4667,-2.4459,-2.4458,-2.4457,0,0,-2.4738,-2.472,-2.4757,-2.4745,-2.4724,-2.4692,-2.4702,-2.4669,-2.4653,-2.4685,-2.4627,-2.4642,-2.4658,-2.4649,-2.4647,-2.476,-2.4716,-2.4764,-2.4841,-2.4874,-2.4889,-2.4901,-2.4944,-2.4959,-2.4772,-2.4772,-2.4772,0,-2.4814,-2.4835,-2.4782,-2.4807,-2.4806,-2.4735,-2.4773,-2.4764,-2.4747,-2.4749,-2.4713,-2.4733,-2.4717,-2.4764,-2.4792,-2.4791,-2.4802,-2.4767,-2.489,-2.4903,-2.4914,-2.4954,-2.497,-2.4778,-2.4778,-2.4777,-2.4776,0,-2.493,-2.4946,-2.4979,-2.4964,-2.4966,-2.4998,-2.4951,-2.4961,-2.4926,-2.4899,-2.4933,-2.4911,-2.4912,-2.4921,-2.4886,-2.4964,-2.4945,-2.4901,-2.4837,-2.4939,-2.4975,-2.499,-2.4787,-2.4785,-2.4783,-2.4782,0,0,-2.5107,-2.5063,-2.5076,-2.5069,-2.5041,-2.5054,-2.5084,-2.5083,-2.5094,-2.5085,-2.5109,-2.5126,-2.5085,-2.5083,-2.5047,-2.5076,-2.517,-2.5028,-2.5027,-2.5057,-2.5256,-2.529,-2.5308,-2.514,-2.5142,-2.5145,-2.5258,0,-2.5216,-2.5263,-2.5216,-2.5273,-2.5289,-2.5222,-2.5249,-2.5236,-2.5212,-2.5223,-2.5197,-2.521,-2.5155,-2.5153,-2.5178,-2.5153,-2.5209,-2.5144,-2.5164,-2.5166,-2.5172,-2.5327,-2.5363,-2.5471,-2.5271,-2.5274,-2.5275,0,-2.5349,-2.5346,-2.5404,-2.5375,-2.538,-2.5404,-2.5401,-2.5412,-2.5397,-2.5378,-2.5376,-2.5333,-2.5362,-2.53,-2.534,-2.5297,-2.5303,-2.5292,-2.5295,-2.5296,-2.5228,-2.5334,-2.5504,-2.5521,-2.5297,-2.5295,-2.5294,0,-2.5475,-2.5485,-2.5522,-2.5517,-2.5484,-2.5503,-2.549,-2.5471,-2.5475,-2.5473,-2.5476,-2.5478,-2.548,-2.5483,-2.5443,-2.5401,-2.549,-2.5423,-2.5476,-2.5478,-2.5498,-2.5498,-2.5673,-2.5501,-2.55,-2.55,-2.55,0,-2.5602,-2.564,-2.5578,-2.56,-2.5643,-2.559,-2.5634,-2.5614,-2.5599,-2.5618,-2.5561,-2.5581,-2.5525,-2.554,-2.5508,-2.5548,-2.5549,-2.5536,-2.5527,-2.5542,-2.5544,-2.5545,-2.5537,-2.5504,-2.5503,-2.5502,-2.5502,0,-2.5749,-2.5708,-2.5744,-2.5709,-2.5702,-2.5735,-2.5705,-2.5726,-2.5699,-2.5724,-2.5727,-2.5685,-2.5699,-2.5659,-2.5667,-2.5646,-2.5704,-2.5683,-2.5709,-2.5703,-2.5759,-2.5755,-2.5943,-2.5966,-2.5777,-2.5779,-2.5781,0,-2.5833,-2.5861,-2.583,-2.5838,-2.5828,-2.5842,-2.5845,-2.5796,-2.5802,-2.5788,-2.5811,-2.5821,-2.5825,-2.5852,-2.5823,-2.583,-2.5809,-2.5875,-2.581,-2.5824,-2.5812,-2.5812,-2.5815,-2.5888,-2.5891,-2.5893,-2.5894,0,-2.5988,-2.5966,-2.5973,-2.5973,-2.5979,-2.5977,-2.5971,-2.5982,-2.5929,-2.5939,-2.5953,-2.5957,-2.5965,-2.5976,-2.5977,-2.5965,-2.5922,-2.5915,-2.5927,-2.5943,-2.5958,-2.5952,-2.5747,-2.5911,-2.5909,-2.5908,-2.5907,-2.5906,-2.6107,-2.6129,-2.6111,-2.6121,-2.6111,-2.6108,-2.6126,-2.6101,-2.6111,-2.6114,-2.6084,-2.6105,-2.6091,-2.6087,-2.608,-2.6097,-2.6067,-2.6086,-2.609,-2.6096,-2.6106,-2.5954,-2.6097,-2.6096,-2.6096,-2.6095,-2.6095,0,-2.6259,-2.6244,-2.6254,-2.6248,-2.6257,-2.6214,-2.6206,-2.6216,-2.6235,-2.6225,-2.6231,-2.6248,-2.6259,-2.6232,-2.6239,-2.6258,-2.6238,-2.6262,-2.626,-2.6259,-2.6131,-2.612,-2.6277,-2.6277,-2.6277,-2.6277,-2.6277,-2.6277,-2.634,-2.6377,-2.6354,-2.6386,-2.6371,-2.639,-2.6389,-2.6387,-2.6379,-2.64,-2.6409,-2.639,-2.6375,-2.638,-2.6389,-2.6381,-2.6387,-2.6418,-2.6404,-2.6285,-2.6267,-2.6251,-2.624,-2.6419,-2.642,-2.6529,-2.6531,-2.6531]},{"header":{"parameterUnit":"m.s-1","parameterCategory":1,"la1":30.2991,"la2":30.254,"lo1":-89.0895,"lo2":-89.0444,"dy":0.0017,"dx":0.0017,"nx":28,"ny":28,"refTime":"2024-06-10T21:00:00:Z","depth":0,"parameterNumber":3,"parameterNumberName":"V-component_of_WINDS"},"data":[0,0,0,0,0,0,0,0,0,0,0,0,0,0,0,0,0,0,0,0,0,0,0,0,0,0,0,0,0,0,0,0,0,0,0,0,0,0,0,0,0,0,0,0,0,0,0,0,0,0,0,0,0,0,0,0,0,0,-0.5971,-0.5971,0,-0.5959,-0.5959,-0.5959,-0.5947,-0.5947,-0.5947,-0.5946,-0.5935,-0.5934,-0.5934,0,0,0,0,0,0,0,0,0,0,0,0,0,-0.5984,-0.5984,-0.5971,-0.5971,-0.5971,-0.596,-0.5959,-0.5959,-0.5947,-0.5947,-0.5947,-0.5946,-0.5935,-0.5934,-0.5934,0,0,0,0,0,0,0,0,0,0,0,0,0,-0.5976,-0.5984,-0.5971,-0.5963,-0.5963,-0.596,-0.5959,-0.5959,-0.5947,-0.5947,-0.5946,-0.5946,-0.5935,-0.5934,-0.5934,-0.5938,0,0,-0.5933,-0.5933,0,0,0,0,0,0,0,0,-0.5977,-0.5976,-0.5965,-0.5964,-0.5963,-0.5954,-0.596,-0.5952,-0.5947,-0.5953,-0.5946,-0.5946,-0.5941,-0.5941,-0.5939,-0.5937,-0.5937,-0.5933,-0.5933,-0.5933,-0.5933,0,0,0,0,0,0,0,-0.5977,-0.5976,-0.5967,-0.5965,-0.5964,-0.5961,-0.596,-0.5958,-0.5949,-0.5952,-0.5952,-0.595,-0.5941,-0.5939,-0.5939,-0.5937,-0.5933,-0.5933,-0.5933,-0.5933,-0.5939,-0.5939,0,0,0,0,0,0,-0.5979,-0.5977,-0.5967,-0.5966,-0.5969,-0.5961,-0.5959,-0.5957,-0.5949,-0.5947,-0.5951,-0.595,-0.594,-0.5939,-0.5938,-0.5943,-0.5933,-0.5933,-0.5933,-0.5939,-0.5939,-0.5939,0,0,0,0,0,0,-0.5979,-0.5978,-0.5967,-0.5971,-0.597,-0.5961,-0.5959,-0.5957,-0.5956,-0.5947,-0.5946,-0.595,-0.5939,-0.5938,-0.5938,-0.5942,-0.5933,-0.5933,-0.5938,-0.5939,-0.5939,-0.5952,0,0,0,0,0,0,-0.598,-0.5978,-0.5979,-0.5971,-0.597,-0.5968,-0.5959,-0.5957,-0.5955,-0.5954,-0.5947,-0.5945,-0.5939,-0.5939,-0.5938,-0.5942,-0.5932,-0.5938,-0.5939,-0.5939,-0.5951,-0.5953,-0.5954,0,0,0,0,0,-0.598,-0.5983,-0.5979,-0.5978,-0.597,-0.5968,-0.5967,-0.596,-0.5956,-0.5957,-0.5952,-0.5946,-0.5942,-0.5939,-0.5938,-0.5942,-0.5938,-0.5938,-0.5939,-0.595,-0.5952,-0.5954,0,0,0,0,0,0,-0.5991,-0.5982,-0.5978,-0.5978,-0.5974,-0.5966,-0.5967,-0.5962,-0.5959,-0.5958,-0.5949,-0.5948,-0.5949,-0.5945,-0.5942,-0.5946,-0.5939,-0.594,-0.5948,-0.595,-0.5951,-0.5952,-0.5932,0,0,0,0,0,-0.5993,-0.5992,-0.5984,-0.5985,-0.5983,-0.5975,-0.5974,-0.5969,-0.5964,-0.5963,-0.5957,-0.5953,-0.5952,-0.595,-0.5948,-0.5951,-0.5949,-0.5953,-0.5954,-0.5956,-0.5956,-0.5959,-0.5961,-0.5942,-0.5942,-0.5942,0,0,-0.5998,-0.5993,-0.5992,-0.5987,-0.5983,-0.5982,-0.5974,-0.5973,-0.5973,-0.5962,-0.5962,-0.5959,-0.5954,-0.5955,-0.5956,-0.5952,-0.5961,-0.5956,-0.5958,-0.5958,-0.596,-0.5962,-0.5963,-0.5942,-0.5942,-0.5942,0,0,-0.6007,-0.6002,-0.6003,-0.6,-0.5995,-0.599,-0.5991,-0.5984,-0.5981,-0.5981,-0.5974,-0.5973,-0.597,-0.5967,-0.5965,-0.5975,-0.5969,-0.5974,-0.5982,-0.5985,-0.5986,-0.5988,-0.5992,-0.5994,-0.5975,-0.5975,-0.5975,0,-0.6013,-0.6012,-0.6004,-0.6005,-0.6003,-0.5994,-0.5996,-0.5993,-0.5987,-0.5987,-0.5983,-0.5979,-0.5975,-0.5977,-0.598,-0.5978,-0.5979,-0.5975,-0.5987,-0.5988,-0.5989,-0.5993,-0.5995,-0.5975,-0.5975,-0.5975,-0.5975,0,-0.6021,-0.602,-0.6022,-0.6017,-0.6015,-0.6016,-0.601,-0.6009,-0.6005,-0.6001,-0.6001,-0.5996,-0.5994,-0.5994,-0.5989,-0.5995,-0.5993,-0.5988,-0.5982,-0.5992,-0.5996,-0.5997,-0.5976,-0.5976,-0.5976,-0.5976,0,0,-0.6035,-0.6028,-0.6028,-0.6027,-0.6021,-0.6021,-0.6022,-0.602,-0.602,-0.6016,-0.6018,-0.6016,-0.6012,-0.601,-0.6005,-0.6007,-0.6017,-0.6002,-0.6001,-0.6006,-0.6025,-0.6029,-0.6031,-0.6013,-0.6013,-0.6013,-0.6026,0,-0.6043,-0.6044,-0.6039,-0.6042,-0.6042,-0.6034,-0.6035,-0.6033,-0.6029,-0.6029,-0.6025,-0.6024,-0.6018,-0.6017,-0.6019,-0.6015,-0.602,-0.6014,-0.6015,-0.6015,-0.6017,-0.6033,-0.6037,-0.6049,-0.6027,-0.6027,-0.6027,0,-0.6052,-0.6051,-0.6054,-0.605,-0.605,-0.6051,-0.6049,-0.6049,-0.6046,-0.6043,-0.6042,-0.6037,-0.6038,-0.6032,-0.6034,-0.603,-0.603,-0.6029,-0.6029,-0.6029,-0.6022,-0.6035,-0.6053,-0.6055,-0.6029,-0.6029,-0.6029,0,-0.6063,-0.6062,-0.6064,-0.6063,-0.6058,-0.606,-0.6058,-0.6055,-0.6054,-0.6053,-0.6053,-0.6051,-0.6051,-0.605,-0.6045,-0.6041,-0.6049,-0.6042,-0.6048,-0.6048,-0.605,-0.605,-0.6069,-0.6049,-0.6049,-0.6049,-0.6049,0,-0.6073,-0.6076,-0.6069,-0.6071,-0.6074,-0.6068,-0.6071,-0.6069,-0.6067,-0.6068,-0.6061,-0.6063,-0.6056,-0.6056,-0.6052,-0.6056,-0.6055,-0.6054,-0.6053,-0.6055,-0.6056,-0.6056,-0.6055,-0.6049,-0.6049,-0.6049,-0.6049,0,-0.6086,-0.6082,-0.6084,-0.608,-0.6079,-0.6082,-0.6079,-0.608,-0.6077,-0.6079,-0.6079,-0.6074,-0.6075,-0.607,-0.6069,-0.6067,-0.6073,-0.607,-0.6074,-0.6073,-0.608,-0.608,-0.61,-0.6103,-0.608,-0.6081,-0.6081,0,-0.6093,-0.6095,-0.6092,-0.6093,-0.6091,-0.6092,-0.6092,-0.6087,-0.6088,-0.6086,-0.6088,-0.6088,-0.6088,-0.609,-0.6087,-0.6087,-0.6085,-0.6092,-0.6085,-0.6087,-0.6086,-0.6087,-0.6088,-0.6094,-0.6094,-0.6094,-0.6094,0,-0.6106,-0.6104,-0.6105,-0.6105,-0.6106,-0.6106,-0.6105,-0.6106,-0.61,-0.6101,-0.6103,-0.6103,-0.6104,-0.6105,-0.6104,-0.6103,-0.6098,-0.6097,-0.6098,-0.6101,-0.6104,-0.6104,-0.6079,-0.6096,-0.6096,-0.6096,-0.6096,-0.6096,-0.6117,-0.6119,-0.6118,-0.6119,-0.6118,-0.6119,-0.612,-0.6118,-0.6119,-0.612,-0.6117,-0.6119,-0.6118,-0.6117,-0.6116,-0.6118,-0.6115,-0.6117,-0.6118,-0.6119,-0.612,-0.6103,-0.6118,-0.6118,-0.6118,-0.6118,-0.6118,0,-0.613,-0.613,-0.6131,-0.6131,-0.6133,-0.6129,-0.6128,-0.613,-0.6132,-0.6132,-0.6133,-0.6135,-0.6137,-0.6134,-0.6135,-0.6138,-0.6136,-0.6138,-0.6138,-0.6138,-0.6123,-0.6122,-0.614,-0.614,-0.614,-0.614,-0.614,-0.614,-0.6137,-0.6142,-0.614,-0.6145,-0.6144,-0.6147,-0.6148,-0.6148,-0.6148,-0.6151,-0.6153,-0.6151,-0.615,-0.6152,-0.6153,-0.6152,-0.6154,-0.6157,-0.6156,-0.6141,-0.6139,-0.6137,-0.6136,-0.6157,-0.6157,-0.6172,-0.6172,-0.6172]}]]